Regional Weather Roundup
Issued by NWS

Home | Current Version | Previous Version | Text Only | Print | Product List | Glossary On
Versions: 1 2 3 4 5 6 7 8 9 10 11 12 13 14 15 16 17 18 19 20 21 22 23 24 25 26 27 28 29 30 31 32 33 34 35 36 37 38 39 40 41 42 43 44 45 46 47 48 49 50
000
ASUS43 KDMX 131706
RWRIA

WEATHER ROUNDUP FOR IOWA
NATIONAL WEATHER SERVICE DES MOINES IA
1100 AM CST WED DEC 13 2017

NOTE: "FAIR" INDICATES FEW OR NO CLOUDS BELOW 12,000 FEET WITH NO
SIGNIFICANT WEATHER AND/OR OBSTRUCTIONS TO VISIBILITY.

* - THESE STATIONS ARE NOT NWS STATIONS...THUS NOT UNDER NWS
QUALITY CONTROL.  THEY ALSO DO NOT REPORT WEATHER SUCH
AS PRECIPITATION OR FOG.

IAZ001>003-012>014-020>022-031>034-043>046-131800-
   NORTHWEST IOWA

CITY           SKY/WX    TMP DP  RH WIND       PRES   REMARKS
CARROLL *      CLOUDY    43  34  70 NW39G45   29.65R
CHEROKEE *     CLOUDY    40  34  76 N26G32    29.70R WCI  30
DENISON *      CLOUDY    45  32  61 NW32G41   29.71R
LE MARS *      CLOUDY    41  32  70 NW22G37   29.75R
ORANGE CITY *  CLOUDY    41  36  81 N20G29    29.72R
SHELDON *      CLOUDY    37  34  87 NW28G36   29.70R WCI  25
SIOUX CITY     PTSUNNY   43  31  62 NW33G49   29.74R
SPENCER        CLOUDY    36  30  79 NW33G45   29.67R WCI  22
STORM LAKE *     N/A     39  32  75 NW38G51   29.66R WCI  26
$$

IAZ055>058-069>071-079>083-090>094-131800-
   SOUTHWEST IOWA

CITY           SKY/WX    TMP DP  RH WIND       PRES   REMARKS
ATLANTIC *     MOSUNNY   48  32  53 NW29G41   29.69R
AUDUBON *      PTSUNNY   45  34  65 NW20G35   29.68R
CLARINDA *     SUNNY     52  32  46 N26G40      N/A
COUNCIL BLFS * SUNNY     50  30  46 NW24G39   29.73R
CRESTON *      PTSUNNY   48  34  57 NW39G56   29.66R
HARLAN  *      SUNNY     46  32  57 NW35G45   29.73R
LAMONI         MOSUNNY   50  33  52 NW31G49   29.62R
RED OAK *      SUNNY     52  32  46 NW23G35   29.72R
SHENANDOAH *   SUNNY     54  32  43 NW17G33   29.75R
$$

IAZ047>049-059>061-072>074-084-131800-
   CENTRAL IOWA

CITY           SKY/WX    TMP DP  RH WIND       PRES   REMARKS
AMES           CLOUDY    39  39 100 NW25G35   29.58R WCI  28
ANKENY *       CLOUDY    41  36  81 NW22G35   29.60R
BOONE *        CLOUDY    39  34  81 NW24G40   29.59R WCI  28
CHARITON *     LGT RAIN  41  37  87 NW30G44   29.60R
DES MOINES     CLOUDY    42  35  76 NW30G44   29.60R
GRINNELL*      RAIN      37  34  89 NW29G45   29.53R WCI  25
KNOXVILLE *    LGT RAIN  41  36  81 NW26G43   29.56R
MARSHALLTOWN   CLOUDY    36  34  92 NW29G38   29.52R WCI  23
NEWTON *       PTSUNNY   37  36  93 NW25G39   29.55R FOG     WCI  26
PELLA *        LGT RAIN  40  37  87 NW25G45   29.57R WCI  29
PERRY *        CLOUDY    41  35  78 NW21G31   29.63R
$$

IAZ004>006-015-016-023>025-035-036-131800-
   NORTH CENTRAL IOWA

CITY           SKY/WX    TMP DP  RH WIND       PRES   REMARKS
ALGONA *       CLOUDY    36  32  87 NW30G45   29.60R WCI  22
CLARION *      CLOUDY    34  34 100 NW28G39   29.56R WCI  20
ESTHERVILLE    CLOUDY    32  28  85 NW33G49   29.65R WCI  17
FORT DODGE *   CLOUDY    37  30  75 NW23G41   29.61R WCI  26
MASON CITY     CLOUDY    34  29  82 NW31G47   29.51R WCI  20
FOREST CITY *  CLOUDY    34  32  93 NW25G36   29.53R WCI  21
WEBSTER CITY * CLOUDY    37  34  87 NW32G45   29.56R WCI  25
IOWA FALLS *   CLOUDY    37  34  89 NW35G44   29.53R WCI  23
$$

IAZ007>011-017>019-026>030-037>042-050>054-066-131800-
   NORTHEAST IOWA

CITY           SKY/WX    TMP DP  RH WIND       PRES   REMARKS
CEDAR RAPIDS   LGT RAIN  42  32  67 NW37G49   29.41R
CHARLES CITY * CLOUDY    34  32  93 NW29G45   29.45R WCI  20
CLINTON *      PTSUNNY   42  27  55 W23G31    29.33F
DECORAH *      CLOUDY    34  27  75 NW25G31   29.36R WCI  21
DUBUQUE        CLOUDY    38  28  67 W18G29    29.31F WCI  28
MONTICELLO *   MOSUNNY   43  28  56 NW28G41   29.35R
OELWEIN *      CLOUDY    37  30  75 NW33G41   29.39R WCI  24
WATERLOO       CLOUDY    38  29  70 NW35G49   29.43R WCI  25
$$

IAZ064-065-067-068-078-131800-
   EAST CENTRAL IOWA

CITY           SKY/WX    TMP DP  RH WIND       PRES   REMARKS
DAVENPORT      MOSUNNY   42  26  53 W22G29    29.38F
IOWA CITY      CLOUDY    47  31  53 W25G38    29.43R
MT. PLEASANT * CLOUDY    47  30  51 W23G30    29.46F
MUSCATINE *    CLOUDY    46  28  49 W22G29    29.41F
QUAD CITIES    PTSUNNY   44  27  51 W22G30    29.36F
$$

IAZ062-063-075>077-085>089-095>099-131800-
   SOUTHEAST IOWA

CITY           SKY/WX    TMP DP  RH WIND       PRES   REMARKS
BURLINGTON     CLOUDY    45  29  53 W17       29.45F
FAIRFIELD *    CLOUDY    45  36  70 W35G53    29.47S
FORT MADISON * CLOUDY    46  28  49 W18G25    29.47F
KEOKUK *       MOSUNNY   46  28  49 W18G28    29.49S
OSKALOOSA *    RAIN      40  36  85 NW39G51   29.53R WCI  27
OTTUMWA        LGT RAIN  43  37  79 NW29G43   29.53R
WASHINGTON *   CLOUDY    46  34  61 NW26G44   29.46R
$$

ABBREVIATIONS USED IN REMARKS
   TC - TEMPERATURES IN CELSIUS
  WCI - WIND CHILL INDEX
   HX - HEAT INDEX
  VSB - VISIBILITY
$$




USA.gov is the U.S. government's official web portal to all federal, state and local government web resources and services.